Location: Vancouver
(49.2500°N, 123.1330°W)
Time: 11:27:39
(UTC-07:00)

ERS-2 - Visible Passes

Search period start: 28 July 2014 00:00
Search period end: 07 August 2014 00:00
Orbit: 532 x 537 km, 98.6° (Epoch: 28 July)

Date Brightness Start Highest point End Pass type
(mag) Time Alt. Az. Time Alt. Az. Time Alt. Az.
28 Jul 3.8 21:33:29 10° N 21:37:10 43° WNW 21:40:50 10° SW visible
31 Jul 5.8 22:42:43 10° NW 22:43:46 11° NW 22:44:49 10° WNW visible
01 Aug 5.6 22:32:56 10° NNW 22:34:50 13° WNW 22:36:43 10° W visible
02 Aug 5.4 22:23:28 10° NNW 22:25:53 16° WNW 22:28:17 10° W visible
03 Aug 5.3 22:14:06 10° NNW 22:16:55 19° WNW 22:19:43 10° WSW visible
04 Aug 4.9 22:04:49 10° N 22:07:56 24° WNW 22:11:02 10° WSW visible
05 Aug 4.5 21:55:34 10° N 21:58:56 29° WNW 22:02:17 10° SW visible
06 Aug 4.1 21:46:22 10° N 21:49:56 35° WNW 21:53:28 10° SW visible
